When you browse on this site, cookies collect data to enhance your experience and personalize the content and advertising you see.
Visit our Privacy Policy to learn more. By continuing to use the site, you agree to this use of cookies and data.
  • In Germany
  • List of Countries
  • For 7 days
  • Water Temperature
  • Weather Map
  • Weather Widgets
  • user-avatar
    Login

    Hourly Weather Ondjiwa

    Today, 20 August, Tuesday

    Time Temperature Precipitation Wind Pressure Humidity
    00:00 +17°C° 0 mm 4 mps 669 mmHg 19%
    01:00 +17°C° 0 mm 4 mps 669 mmHg 18%
    02:00 +15°C° 0 mm 4 mps 669 mmHg 18%
    03:00 +14°C° 0 mm 3 mps 668 mmHg 19%
    04:00 +13°C° 0 mm 3 mps 668 mmHg 20%
    05:00 +13°C° 0 mm 3 mps 669 mmHg 19%
    06:00 +13°C° 0 mm 3 mps 669 mmHg 19%
    07:00 +13°C° 0 mm 3 mps 670 mmHg 19%
    08:00 +17°C° 0 mm 5 mps 671 mmHg 16%
    09:00 +23°C° 0 mm 6 mps 672 mmHg 13%
    10:00 +28°C° 0 mm 7 mps 673 mmHg 10%
    11:00 +29°C° 0 mm 6 mps 672 mmHg 9%
    12:00 +32°C° 0 mm 6 mps 672 mmHg 8%
    13:00 +33°C° 0 mm 5 mps 671 mmHg 8%
    14:00 +33°C° 0 mm 5 mps 670 mmHg 8%
    15:00 +33°C° 0 mm 5 mps 670 mmHg 7%
    16:00 +33°C° 0 mm 4 mps 669 mmHg 7%
    17:00 +29°C° 0 mm 4 mps 669 mmHg 10%
    18:00 +25°C° 0 mm 3 mps 669 mmHg 12%
    19:00 +21°C° 0 mm 2 mps 669 mmHg 14%
    20:00 +20°C° 0 mm 3 mps 669 mmHg 15%
    21:00 +19°C° 0 mm 3 mps 669 mmHg 16%
    22:00 +18°C° 0 mm 3 mps 669 mmHg 18%
    23:00 +18°C° 0 mm 3 mps 669 mmHg 19%

    Tomorrow, 21 August, Wednesday

    Time Temperature Precipitation Wind Pressure Humidity
    00:00 +17°C° 0 mm 3 mps 669 mmHg 21%
    01:00 +16°C° 0 mm 3 mps 669 mmHg 22%
    02:00 +16°C° 0 mm 3 mps 669 mmHg 23%
    03:00 +16°C° 0 mm 3 mps 669 mmHg 25%
    04:00 +14°C° 0 mm 3 mps 669 mmHg 26%
    05:00 +14°C° 0 mm 3 mps 669 mmHg 26%
    06:00 +14°C° 0 mm 3 mps 670 mmHg 26%
    07:00 +14°C° 0 mm 3 mps 670 mmHg 27%
    08:00 +19°C° 0 mm 5 mps 671 mmHg 22%
    09:00 +24°C° 0 mm 6 mps 672 mmHg 18%
    10:00 +29°C° 0 mm 7 mps 673 mmHg 13%
    11:00 +30°C° 0 mm 6 mps 672 mmHg 12%
    12:00 +33°C° 0 mm 6 mps 672 mmHg 11%
    13:00 +34°C° 0 mm 5 mps 671 mmHg 10%
    14:00 +34°C° 0 mm 4 mps 671 mmHg 10%
    15:00 +34°C° 0 mm 4 mps 670 mmHg 10%
    16:00 +34°C° 0 mm 4 mps 670 mmHg 10%
    17:00 +30°C° 0 mm 3 mps 669 mmHg 13%
    18:00 +27°C° 0 mm 3 mps 669 mmHg 16%
    19:00 +24°C° 0 mm 2 mps 669 mmHg 18%
    20:00 +22°C° 0 mm 3 mps 669 mmHg 20%
    21:00 +20°C° 0 mm 3 mps 669 mmHg 22%
    22:00 +19°C° 0 mm 3 mps 670 mmHg 23%
    23:00 +19°C° 0 mm 3 mps 670 mmHg 24%

    Day after tomorrow, 22 August, Thursday

    Time Temperature Precipitation Wind Pressure Humidity
    00:00 +18°C° 0 mm 4 mps 669 mmHg 26%
    01:00 +18°C° 0 mm 4 mps 669 mmHg 27%
    02:00 +17°C° 0 mm 4 mps 669 mmHg 28%
    03:00 +16°C° 0 mm 3 mps 669 mmHg 29%
    04:00 +16°C° 0 mm 3 mps 669 mmHg 31%
    05:00 +15°C° 0 mm 4 mps 669 mmHg 31%
    06:00 +15°C° 0 mm 4 mps 670 mmHg 32%
    07:00 +15°C° 0 mm 4 mps 671 mmHg 32%
    08:00 +20°C° 0 mm 5 mps 671 mmHg 27%
    09:00 +24°C° 0 mm 6 mps 672 mmHg 23%
    10:00 +29°C° 0 mm 7 mps 673 mmHg 18%
    11:00 +30°C° 0 mm 7 mps 672 mmHg 16%
    12:00 +32°C° 0 mm 6 mps 672 mmHg 15%
    13:00 +33°C° 0 mm 5 mps 671 mmHg 13%
    14:00 +33°C° 0 mm 5 mps 671 mmHg 14%
    15:00 +33°C° 0 mm 5 mps 670 mmHg 14%
    16:00 +33°C° 0 mm 4 mps 670 mmHg 14%
    17:00 +29°C° 0 mm 4 mps 670 mmHg 18%
    18:00 +26°C° 0 mm 3 mps 669 mmHg 21%
    19:00 +22°C° 0 mm 3 mps 669 mmHg 25%
    20:00 +21°C° 0 mm 3 mps 669 mmHg 26%
    21:00 +21°C° 0 mm 4 mps 669 mmHg 28%
    22:00 +20°C° 0 mm 4 mps 670 mmHg 29%
    23:00 +19°C° 0 mm 4 mps 670 mmHg 30%

    23 August, Friday

    Time Temperature Precipitation Wind Pressure Humidity
    00:00 +18°C° 0 mm 4 mps 670 mmHg 30%
    01:00 +18°C° 0 mm 4 mps 670 mmHg 30%
    02:00 +17°C° 0 mm 4 mps 669 mmHg 31%
    03:00 +15°C° 0 mm 4 mps 669 mmHg 31%
    04:00 +14°C° 0 mm 4 mps 669 mmHg 31%
    05:00 +14°C° 0 mm 4 mps 670 mmHg 31%
    06:00 +14°C° 0 mm 4 mps 670 mmHg 30%
    07:00 +14°C° 0 mm 5 mps 671 mmHg 29%
    08:00 +19°C° 0 mm 5 mps 672 mmHg 25%
    09:00 +23°C° 0 mm 6 mps 672 mmHg 20%
    10:00 +28°C° 0 mm 7 mps 673 mmHg 15%
    11:00 +29°C° 0 mm 7 mps 672 mmHg 14%
    12:00 +30°C° 0 mm 6 mps 672 mmHg 13%
    13:00 +32°C° 0 mm 6 mps 671 mmHg 11%
    14:00 +32°C° 0 mm 5 mps 671 mmHg 10%
    15:00 +32°C° 0 mm 5 mps 670 mmHg 10%
    16:00 +32°C° 0 mm 5 mps 670 mmHg 9%
    17:00 +28°C° 0 mm 4 mps 670 mmHg 11%
    18:00 +25°C° 0 mm 3 mps 669 mmHg 13%
    19:00 +21°C° 0 mm 3 mps 669 mmHg 14%
    20:00 +20°C° 0 mm 3 mps 669 mmHg 15%
    21:00 +19°C° 0 mm 3 mps 669 mmHg 15%
    22:00 +18°C° 0 mm 3 mps 669 mmHg 15%
    23:00 +17°C° 0 mm 3 mps 669 mmHg 16%

    24 August, Saturday

    Time Temperature Precipitation Wind Pressure Humidity
    00:00 +16°C° 0 mm 3 mps 669 mmHg 17%
    01:00 +14°C° 0 mm 3 mps 669 mmHg 19%
    02:00 +13°C° 0 mm 3 mps 669 mmHg 20%
    03:00 +13°C° 0 mm 3 mps 669 mmHg 22%
    04:00 +12°C° 0 mm 3 mps 669 mmHg 24%
    05:00 +12°C° 0 mm 3 mps 669 mmHg 23%
    06:00 +12°C° 0 mm 3 mps 670 mmHg 23%
    07:00 +12°C° 0 mm 3 mps 671 mmHg 23%
    08:00 +18°C° 0 mm 4 mps 671 mmHg 18%
    09:00 +23°C° 0 mm 5 mps 672 mmHg 14%
    10:00 +28°C° 0 mm 6 mps 673 mmHg 9%
    11:00 +30°C° 0 mm 6 mps 672 mmHg 8%
    12:00 +32°C° 0 mm 5 mps 672 mmHg 7%
    13:00 +33°C° 0 mm 5 mps 671 mmHg 6%
    14:00 +33°C° 0 mm 4 mps 671 mmHg 6%
    15:00 +33°C° 0 mm 4 mps 670 mmHg 6%
    16:00 +33°C° 0 mm 4 mps 670 mmHg 6%
    17:00 +29°C° 0 mm 3 mps 669 mmHg 7%
    18:00 +26°C° 0 mm 3 mps 669 mmHg 9%
    19:00 +23°C° 0 mm 2 mps 669 mmHg 11%
    20:00 +20°C° 0 mm 3 mps 669 mmHg 12%
    21:00 +19°C° 0 mm 3 mps 669 mmHg 13%
    22:00 +18°C° 0 mm 3 mps 669 mmHg 14%
    23:00 +18°C° 0 mm 3 mps 669 mmHg 15%

    25 August, Sunday

    Time Temperature Precipitation Wind Pressure Humidity
    00:00 +17°C° 0 mm 3 mps 669 mmHg 16%
    01:00 +16°C° 0 mm 3 mps 669 mmHg 16%
    02:00 +14°C° 0 mm 3 mps 668 mmHg 18%
    03:00 +13°C° 0 mm 3 mps 668 mmHg 19%
    04:00 +12°C° 0 mm 3 mps 668 mmHg 21%
    05:00 +13°C° 0 mm 3 mps 669 mmHg 20%
    06:00 +13°C° 0 mm 3 mps 669 mmHg 20%
    07:00 +13°C° 0 mm 3 mps 670 mmHg 19%
    08:00 +18°C° 0 mm 4 mps 670 mmHg 16%
    09:00 +22°C° 0 mm 4 mps 671 mmHg 13%
    10:00 +27°C° 0 mm 5 mps 672 mmHg 9%
    11:00 +29°C° 0 mm 5 mps 671 mmHg 8%
    12:00 +32°C° 0 mm 4 mps 671 mmHg 7%
    13:00 +34°C° 0 mm 4 mps 670 mmHg 6%
    14:00 +34°C° 0 mm 4 mps 670 mmHg 6%
    15:00 +34°C° 0 mm 3 mps 669 mmHg 6%
    16:00 +34°C° 0 mm 3 mps 669 mmHg 5%
    17:00 +30°C° 0 mm 3 mps 668 mmHg 7%
    18:00 +26°C° 0 mm 2 mps 668 mmHg 9%
    19:00 +23°C° 0 mm 2 mps 667 mmHg 10%
    20:00 +21°C° 0 mm 2 mps 667 mmHg 12%
    21:00 +19°C° 0 mm 2 mps 667 mmHg 13%
    22:00 +18°C° 0 mm 2 mps 668 mmHg 14%
    23:00 +17°C° 0 mm 2 mps 667 mmHg 15%
    Show more